RH
63 68 73 77 77 76 78 79 87 92 90 90 83 79 72 66 68 65 64 61 61 59 59 58 57 57 58 63 62 61 60 59 61 61 62 59 56 55 57 59 59 60 60 60 59 59 58 58 57 56 55 55 56 56 56 55 54 53 53 54 55 54 50 50 53 57 59 59 57 53 49 46 46 45 46 47 48 47 46 46 48 52 53 52 51 50 48 45 43 40 38 36 34 33 32 32 34
81 84 83 85 85 82 83 82 88 92 91 91 82 75 70 68 67 62 63 63 63 62 60 58 56 56 57 62 63 64 62 61 63 63 63 62 61 60 60 59 60 60 60 61 60 60 59 59 58 58 57 56 56 56 55 54 53 52 53 54 56 56 54 51 49 52 55 58 60 59 54 50 48 47 47 47 48 48 46 46 48 51 53 52 52 51 50 48 45 42 40 37 35 33 33 34 36
90 91 87 87 89 86 88 88 87 91 92 89 75 68 67 66 64 61 62 61 62 62 59 58 58 58 59 63 65 66 64 64 64 64 64 63 63 63 63 62 62 61 61 61 60 60 59 59 59 59 58 58 57 55 55 54 54 53 51 53 56 56 56 54 50 49 50 53 58 61 61 56 51 49 49 48 49 49 49 49 48 50 52 53 53 52 52 50 47 44 41 37 35 33 35 35 35
89 88 85 86 90 88 92 92 86 89 92 85 71 66 65 62 62 64 61 55 56 57 55 58 62 62 61 65 66 65 64 63 64 64 64 64 65 65 66 65 65 64 63 63 62 61 61 61 61 62 61 61 60 58 57 55 55 54 53 52 56 57 56 56 54 51 48 49 51 57 62 63 58 53 51 50 50 51 52 52 51 50 50 53 54 54 54 52 49 46 41 38 36 35 36 36 35
84 82 82 83 90 90 92 92 88 88 83 75 68 63 61 60 60 62 62 56 55 57 59 61 64 64 63 66 66 65 64 63 63 63 63 64 64 64 64 64 65 65 65 65 65 65 64 63 63 63 63 63 63 61 59 57 56 55 54 52 54 55 55 56 55 54 52 49 48 50 57 63 64 59 55 52 51 52 53 55 55 52 51 52 54 55 55 54 50 46 42 39 39 38 39 37 35
79 78 78 80 86 86 89 91 86 77 67 66 65 58 54 53 53 58 64 63 60 62 63 64 64 66 65 66 67 65 63 62 61 60 60 61 60 60 60 60 61 63 64 65 65 65 65 63 62 61 61 61 61 61 61 59 57 55 52 51 52 51 51 52 52 54 54 53 50 48 50 57 63 64 61 56 54 53 54 56 57 55 52 52 54 55 55 55 52 46 42 39 38 42 43 39 38
76 77 76 78 83 83 85 82 75 66 60 61 59 55 52 49 49 55 63 63 63 63 62 63 63 63 63 62 62 60 58 57 56 55 54 55 55 54 55 56 58 60 62 63 64 63 63 62 60 58 57 57 57 58 58 57 56 55 53 51 51 50 49 49 50 51 53 55 54 50 48 51 57 62 64 61 58 55 56 56 58 57 53 53 54 55 55 56 54 47 42 40 40 47 48 43 41
78 78 77 79 83 83 82 75 67 62 60 58 53 52 52 49 49 50 58 60 60 60 60 61 62 61 59 57 55 54 54 54 54 52 52 52 51 51 52 54 56 59 60 61 62 61 60 59 57 56 55 54 54 54 53 54 53 53 53 52 51 51 52 52 52 53 54 55 55 54 49 48 51 56 61 62 61 59 58 57 58 59 55 54 55 56 58 58 56 48 43 41 43 51 52 48 45
84 83 82 84 87 84 80 73 67 61 58 56 54 52 51 50 49 45 50 56 56 55 55 57 59 60 56 54 53 51 51 53 54 53 54 54 53 53 53 54 56 58 58 58 58 58 58 57 57 55 55 54 52 51 50 49 49 49 50 51 51 53 55 55 56 56 57 57 57 56 53 50 48 51 55 59 62 62 61 59 60 60 58 55 54 57 59 62 59 52 47 43 45 53 54 51 49
90 89 90 90 90 88 80 69 63 59 55 55 54 54 55 53 51 47 45 51 56 54 53 54 58 62 59 57 55 52 51 51 52 52 53 55 55 56 56 56 57 57 57 57 57 56 56 56 56 55 54 53 52 50 48 46 45 46 48 50 52 54 55 56 60 63 64 64 62 60 57 54 51 50 52 56 60 64 63 62 61 61 60 56 55 56 59 65 64 58 51 48 48 52 56 55 53
92 92 95 95 95 91 79 68 61 58 55 53 52 54 58 56 55 52 48 50 55 56 55 55 58 61 61 60 57 54 53 52 51 50 50 50 52 53 54 54 54 55 56 57 57 57 56 56 55 55 54 52 51 50 49 47 45 44 47 50 52 55 57 61 64 65 67 68 68 66 61 58 56 55 55 56 59 64 66 65 64 64 62 59 57 56 59 65 68 66 60 57 55 52 57 56 54
89 91 94 98 98 91 79 69 62 61 59 53 52 54 56 56 57 54 51 51 54 57 57 55 57 57 59 62 60 57 55 52 50 49 49 49 49 50 50 50 51 52 53 54 55 54 53 53 52 52 52 51 50 50 48 47 46 45 46 49 54 57 57 61 63 63 67 72 73 71 68 62 58 57 59 60 61 64 68 68 68 67 66 62 59 57 60 64 69 72 66 63 60 56 57 55 54
85 86 89 94 92 86 80 69 61 62 60 55 55 55 55 57 58 57 57 58 57 59 58 57 58 58 59 59 55 54 53 50 48 46 47 48 49 50 50 50 51 51 50 50 50 50 49 48 49 49 49 49 48 48 47 45 45 46 48 50 55 60 59 60 63 63 68 75 77 76 76 74 65 60 62 65 66 68 70 71 71 70 68 66 63 61 64 67 69 73 71 68 64 65 67 63 59
79 82 85 92 86 77 74 67 62 58 52 52 54 54 57 61 64 66 65 64 62 61 61 61 61 61 58 54 49 48 50 49 49 48 47 48 48 49 51 52 51 51 49 49 50 50 50 49 48 48 48 48 47 46 46 45 44 46 50 53 58 62 61 63 64 64 69 74 78 79 79 81 76 68 66 69 71 73 74 74 74 73 71 69 67 65 69 73 73 76 77 74 71 73 76 71 62
78 80 83 88 81 71 66 62 60 53 46 48 50 53 60 67 71 72 69 65 63 62 61 61 61 58 55 52 50 48 50 51 51 50 50 50 50 50 51 51 52 52 51 50 51 51 51 52 50 49 48 48 47 46 45 44 44 44 47 52 58 61 62 64 63 63 68 70 76 80 77 79 80 74 71 73 76 78 79 79 78 77 75 72 70 69 73 78 79 81 82 80 78 74 73 74 69
78 78 79 78 71 66 61 55 55 50 44 45 50 54 60 67 73 74 72 68 64 63 61 60 59 56 53 53 53 52 52 52 51 51 52 52 52 52 51 52 52 52 53 53 53 54 54 54 53 51 49 47 47 47 47 46 44 42 43 45 51 58 61 62 62 63 65 67 75 80 77 77 79 78 75 76 81 84 84 83 83 82 79 76 73 73 77 82 86 87 84 81 78 73 75 82 80
75 75 75 72 65 60 53 48 50 48 45 47 52 57 59 64 71 73 74 73 69 65 63 61 59 59 58 58 57 57 56 55 55 55 55 55 55 55 54 54 55 54 54 55 56 56 57 57 55 53 52 50 48 47 49 50 47 43 41 41 43 50 56 59 60 62 61 64 72 75 73 73 76 80 79 80 84 88 90 88 88 86 82 79 76 76 80 84 88 89 86 81 76 72 77 85 85
71 74 73 66 57 51 46 45 48 49 51 55 57 59 60 61 67 71 73 73 71 67 65 64 62 63 64 63 63 62 62 61 61 61 60 59 58 56 56 56 55 55 55 55 56 56 56 55 53 51 52 52 50 49 50 51 51 47 44 42 41 42 47 54 57 59 59 60 65 69 72 74 76 79 81 84 85 89 94 93 91 89 85 83 81 81 83 82 84 87 86 80 73 68 69 74 78
67 69 66 55 48 45 43 45 50 53 56 60 62 62 62 60 62 66 68 68 70 67 59 61 66 67 68 67 67 66 65 65 64 63 62 60 60 58 57 57 56 55 55 55 55 55 55 53 50 49 49 49 49 49 49 50 52 51 49 47 44 42 41 45 51 56 57 57 58 61 67 74 78 81 81 83 87 88 91 95 93 91 87 87 87 86 88 86 85 86 84 80 72 67 66 66 66
67 66 58 47 44 44 44 49 54 60 62 62 63 64 62 59 59 60 61 61 63 61 53 57 66 68 70 70 70 70 68 67 66 65 64 62 61 60 59 58 57 56 55 54 54 54 54 53 51 49 48 47 48 49 49 49 50 51 51 51 49 47 43 41 44 48 52 54 54 56 59 65 73 83 84 83 87 83 83 93 95 94 91 90 92 89 88 89 88 86 83 79 72 68 67 66 66
62 59 51 46 47 47 52 58 62 67 69 66 66 66 60 57 61 60 58 56 51 50 54 59 63 64 67 70 71 72 71 70 69 69 66 64 62 61 61 60 59 59 58 57 56 55 54 53 53 52 51 49 49 49 49 50 50 50 51 52 51 48 45 43 40 43 52 54 51 53 55 57 64 77 83 81 80 75 75 83 87 88 87 86 88 88 86 86 88 87 83 81 75 74 73 72 72
57 53 51 54 55 54 56 64 69 73 76 75 73 69 62 58 60 57 57 53 42 43 54 60 61 62 63 64 67 70 72 73 72 72 70 67 64 63 62 61 60 60 60 59 59 58 57 56 56 56 55 54 52 51 50 50 51 51 52 51 50 48 45 43 40 42 50 52 51 51 54 57 60 69 82 80 72 75 76 77 78 78 78 78 78 80 81 80 83 84 83 84 79 77 78 76 75
63 59 59 62 63 59 58 65 71 75 77 76 77 73 64 57 48 43 47 45 41 44 50 54 56 59 61 61 62 63 66 69 70 72 72 70 67 65 64 62 61 61 61 61 62 62 62 62 62 61 60 59 56 55 53 51 51 52 53 51 48 47 45 43 40 39 41 46 51 51 51 55 58 65 79 82 75 77 78 75 76 74 73 73 74 76 76 77 79 79 80 81 79 78 77 75 75
65 56 55 62 68 65 64 69 69 71 72 70 75 70 56 50 39 28 29 31 34 38 39 44 45 46 52 55 57 58 58 60 63 66 69 71 70 68 66 65 63 62 61 61 61 62 64 67 67 66 64 64 62 61 59 56 54 52 52 49 46 48 47 45 42 39 37 39 47 54 56 57 62 62 65 76 83 83 80 75 73 72 69 68 72 73 72 75 77 74 73 73 75 76 76 76 76
65 58 57 63 69 68 70 71 67 67 67 67 70 58 42 44 39 20 11 15 19 22 25 29 29 30 33 38 43 46 46 46 47 51 57 62 66 67 67 66 65 64 65 65 64 63 63 65 71 73 70 68 67 66 65 61 58 55 52 48 46 50 50 48 45 43 40 36 37 47 58 63 67 65 61 70 79 79 79 75 70 69 67 65 65 65 64 67 69 69 68 69 70 70 71 70 67
68 69 71 67 65 65 66 64 63 64 62 67 65 42 26 34 37 17 3 9 12 13 15 15 16 18 18 21 24 25 26 26 27 32 37 41 47 53 59 63 65 65 63 59 52 46 41 41 53 67 72 74 74 73 71 68 64 59 55 49 48 52 53 51 50 48 47 43 36 37 48 57 62 65 67 69 69 73 77 75 71 69 69 67 64 64 65 66 67 69 69 69 69 68 65 62 61
64 68 68 64 63 60 59 54 55 59 53 60 61 35 19 29 37 18 4 8 10 11 13 13 13 12 10 12 12 12 12 12 13 15 18 20 24 30 35 40 44 42 38 32 25 21 20 20 26 39 50 57 60 59 60 66 70 68 63 57 52 55 54 51 52 51 50 50 45 40 40 48 59 67 73 75 73 76 77 75 75 73 70 70 69 69 68 66 67 69 70 68 66 63 58 55 58
58 56 50 48 52 49 47 44 46 51 46 50 55 41 24 28 32 13 4 9 9 11 12 12 13 9 7 7 7 8 8 8 9 9 10 11 12 14 16 16 17 16 15 14 14 15 16 18 19 22 27 33 36 35 38 50 63 66 64 58 53 55 53 50 51 51 50 51 54 51 43 45 56 66 76 83 82 80 79 78 84 87 85 84 81 76 72 70 67 68 70 70 67 63 55 49 49
54 51 44 35 34 33 33 33 34 38 37 35 46 52 29 17 19 6 6 11 9 13 12 10 10 8 8 8 9 9 8 8 7 7 7 7 8 8 8 7 8 8 8 7 8 10 11 12 14 15 18 24 30 32 32 37 46 52 56 57 56 56 56 53 47 42 42 48 55 56 53 52 54 60 73 85 86 84 84 84 89 95 95 97 96 87 84 81 75 71 69 67 67 66 57 45 42
51 51 48 37 33 27 21 24 26 27 29 25 43 66 36 6 12 8 8 12 11 15 14 12 12 12 15 15 15 15 12 11 9 9 8 7 7 6 6 6 6 7 7 7 7 11 14 14 15 15 15 17 21 26 29 33 41 52 61 64 64 62 62 56 42 35 44 59 65 61 60 63 62 62 68 76 81 82 84 84 88 93 93 98 101 94 91 87 79 78 78 69 62 62 54 42 41
51 52 49 48 51 32 13 19 21 21 25 21 35 57 32 4 9 10 10 12 11 14 14 18 19 21 25 24 23 21 18 17 14 14 14 15 17 15 13 11 10 10 10 11 12 14 16 18 18 19 20 19 17 16 20 29 42 56 65 68 68 67 64 55 43 41 53 70 71 61 61 69 73 74 71 72 77 79 81 84 86 92 96 96 98 98 96 94 87 84 89 77 58 54 47 38 42
53 64 57 48 52 33 14 20 20 18 22 20 29 41 28 12 11 11 13 14 13 14 15 19 24 27 31 31 31 29 27 28 27 28 29 33 35 32 29 26 23 21 21 22 22 22 23 23 20 18 23 29 29 25 24 30 40 52 60 66 68 67 62 52 47 49 57 70 72 64 64 72 79 83 82 78 75 71 74 84 86 89 94 94 97 97 92 93 91 85 87 83 73 69 58 43 41
41 60 59 38 37 29 19 20 20 22 23 22 29 36 30 21 18 17 17 17 19 21 21 21 24 27 29 30 32 35 38 41 42 42 44 45 45 42 41 40 38 35 33 32 31 30 30 30 27 26 32 39 43 42 41 41 42 46 51 56 58 58 56 51 47 47 49 60 71 73 72 72 73 73 75 73 68 62 64 78 86 88 91 92 95 89 82 88 90 83 78 78 81 80 73 63 58
24 36 43 31 30 31 26 21 19 26 31 30 33 37 33 23 21 20 16 18 22 25 24 22 24 27 27 28 32 37 42 45 47 47 46 45 45 44 43 43 43 42 41 39 39 39 37 34 31 31 38 45 48 49 49 50 49 49 49 50 51 51 52 51 49 48 44 46 57 66 66 65 65 63 63 63 62 59 57 64 71 80 87 91 89 77 80 90 88 86 77 68 70 70 72 76 79
20 26 31 31 34 36 32 24 21 30 41 43 41 41 33 23 20 17 16 17 20 22 21 20 23 26 26 27 29 32 35 37 40 43 39 36 37 38 36 35 36 35 34 35 38 41 42 40 34 31 35 41 48 49 48 49 48 49 49 49 50 49 50 50 49 49 47 43 44 47 48 50 52 53 52 51 51 52 51 51 52 61 74 90 91 75 80 91 88 90 82 73 74 74 81 85 84
29 33 36 38 39 39 30 22 20 29 46 48 40 35 27 23 23 21 20 20 22 22 19 19 20 20 20 20 21 22 24 26 29 31 26 23 24 24 24 22 23 22 21 24 30 36 40 40 38 35 36 38 43 46 44 44 43 43 44 45 46 46 46 47 48 47 45 44 43 41 40 41 42 44 43 41 40 39 39 39 39 42 52 77 96 85 80 89 92 95 88 84 85 83 88 89 84
43 45 46 46 48 39 20 17 18 23 45 45 31 30 27 25 24 21 21 19 18 17 12 13 12 12 13 13 15 15 17 22 24 22 17 14 13 13 14 14 14 16 18 24 31 36 39 41 41 42 43 44 45 46 44 43 42 42 43 44 45 46 44 45 48 49 48 47 46 46 44 43 44 44 44 42 38 34 30 29 30 31 34 52 83 94 90 88 91 97 96 93 90 86 87 86 85
49 53 54 56 51 31 15 19 19 23 43 43 32 36 31 23 18 14 15 13 10 9 7 8 7 7 8 7 8 9 13 17 17 15 12 11 10 10 12 12 13 15 21 28 34 37 40 42 43 45 47 48 49 49 48 46 44 44 46 46 47 49 50 49 49 50 51 53 51 51 50 48 48 47 48 46 41 35 29 26 26 28 27 30 51 77 88 91 93 93 94 96 95 92 90 88 87
50 52 60 62 42 28 26 24 20 27 43 44 41 42 28 15 12 9 10 11 10 10 8 7 7 7 7 7 8 9 11 12 10 10 10 9 11 12 13 14 16 21 25 30 34 35 37 38 40 43 46 47 49 51 51 49 48 49 49 49 49 50 52 51 51 51 52 54 54 54 53 50 48 47 47 44 36 32 29 26 26 27 28 25 29 46 59 74 91 95 91 95 99 97 94 96 95
42 44 56 52 31 34 40 30 28 37 45 46 45 46 31 14 12 12 13 16 16 15 12 11 11 8 9 12 13 13 12 12 11 11 11 11 12 13 15 17 21 25 28 31 33 34 33 34 34 36 40 45 50 52 52 50 51 53 53 53 53 52 54 53 52 53 51 50 49 48 46 44 43 41 40 37 31 30 28 26 28 29 30 27 29 42 49 53 74 94 95 90 94 95 93 98 102
34 37 43 35 25 34 39 35 38 43 45 43 42 50 38 17 18 18 16 20 17 16 18 17 13 10 14 17 16 16 14 14 15 14 16 17 17 19 20 22 24 26 28 30 32 33 32 33 35 37 40 44 50 54 52 50 51 55 56 56 57 57 56 55 52 50 47 44 41 38 37 36 37 37 36 34 32 30 28 28 31 34 34 31 32 47 60 56 57 78 91 89 89 92 92 94 100
36 33 30 27 29 35 39 41 48 57 56 46 48 61 47 25 27 26 16 17 19 20 23 19 15 15 17 17 15 15 15 15 16 18 20 22 24 27 29 29 29 29 29 31 32 36 40 43 45 48 48 47 49 52 51 51 52 55 58 58 58 56 53 50 47 43 39 35 32 31 32 32 34 35 36 35 33 29 28 29 33 38 37 34 35 46 63 66 61 69 83 88 89 91 93 92 92
43 35 27 31 38 42 45 48 58 67 61 53 61 73 64 41 27 23 18 18 25 27 24 20 19 19 17 16 16 15 14 14 15 18 21 25 29 33 37 38 38 38 36 35 38 43 48 50 51 52 54 53 52 53 55 56 56 57 58 57 53 50 47 43 38 34 30 28 27 28 30 32 33 35 37 37 35 32 29 26 29 38 40 35 34 42 58 69 72 76 80 83 87 91 94 97 94
42 36 35 43 47 49 54 57 63 64 57 62 68 70 77 61 26 16 21 26 32 30 25 25 23 23 21 19 18 16 16 16 17 19 20 23 28 32 37 40 43 47 45 44 45 47 48 48 47 48 54 57 56 57 58 58 59 57 55 52 50 47 42 37 32 30 29 29 29 30 32 35 36 37 39 38 37 36 33 28 27 33 39 39 35 37 50 67 74 80 83 82 83 86 88 92 97
38 39 47 52 53 57 59 60 61 62 67 75 71 64 76 65 28 17 24 26 32 29 25 28 27 27 27 24 23 21 21 21 19 21 23 25 30 33 36 38 42 46 48 49 48 47 46 45 45 47 53 58 56 56 58 58 58 56 53 51 47 42 37 34 33 33 33 33 33 35 35 37 38 39 39 38 36 34 32 30 29 31 35 38 38 36 42 57 69 75 81 82 80 82 84 85 91
40 44 49 51 57 61 61 64 64 70 83 83 73 67 72 63 35 25 28 25 30 32 28 30 30 31 31 28 30 29 29 29 26 26 28 32 37 40 43 44 45 46 47 50 51 50 51 51 51 51 56 59 56 56 59 60 58 55 53 50 43 39 37 37 38 37 36 36 37 38 40 40 40 41 40 40 39 38 36 34 34 34 33 33 36 38 37 43 55 66 74 79 77 78 81 85 91
43 46 49 51 58 59 60 65 68 84 92 75 61 56 65 74 52 30 30 29 31 34 33 35 36 35 35 35 36 35 35 36 35 34 34 36 40 44 48 51 51 51 50 51 52 53 55 56 56 57 59 60 60 61 61 59 58 55 51 45 41 40 41 41 41 41 41 40 40 40 41 42 42 42 42 42 43 44 43 42 41 39 37 34 33 35 36 36 42 54 66 75 77 77 79 83 88
41 44 49 56 57 53 59 64 74 96 88 57 46 45 59 79 58 30 29 31 32 36 37 40 41 39 39 39 37 35 35 37 37 37 36 37 39 42 46 51 54 55 55 54 53 53 55 56 58 60 62 63 64 64 62 60 58 53 47 43 43 43 43 43 43 44 44 43 44 43 43 43 42 42 43 44 45 45 44 44 43 42 41 40 37 35 36 37 39 46 58 69 75 77 80 84 88
37 38 47 70 78 74 73 70 78 91 71 42 40 50 63 67 48 32 31 32 36 39 42 43 42 43 41 38 37 36 37 38 38 39 38 39 40 41 43 46 51 55 56 56 55 55 55 57 59 62 65 66 67 66 63 61 56 50 47 46 47 46 45 46 46 46 47 46 46 46 45 44 43 44 45 45 46 45 45 44 43 43 43 43 43 41 39 40 42 47 58 75 84 83 85 92 96
35 32 39 66 86 90 81 66 70 73 53 37 40 54 64 52 38 38 35 34 39 41 44 45 42 43 42 41 41 42 42 42 41 40 41 41 39 38 41 44 49 53 54 55 56 57 58 60 62 65 68 68 68 67 64 60 54 50 50 50 49 48 48 48 47 47 47 46 46 46 45 45 45 46 46 47 48 47 46 44 42 42 43 46 49 50 50 50 52 59 70 86 96 96 95 98 100
36 36 40 51 58 64 60 53 60 61 50 47 49 56 59 43 37 40 36 38 43 43 45 45 45 46 47 47 47 46 46 45 43 41 42 44 40 38 40 45 49 49 49 51 54 59 62 65 67 70 71 71 69 68 63 57 53 52 53 53 52 52 51 50 50 49 48 47 47 46 46 46 47 48 49 50 51 51 49 47 46 46 48 53 58 63 68 70 73 79 86 94 99 100 100 100 100
42 47 54 54 47 46 51 52 54 57 65 67 59 58 54 43 40 40 41 45 45 47 49 48 51 51 50 50 50 50 50 49 47 44 44 46 44 41 41 45 50 49 48 51 55 61 66 69 73 74 74 73 70 66 60 57 57 57 57 56 55 55 54 53 52 51 50 49 49 49 50 52 53 53 54 55 54 53 53 52 53 55 58 63 71 78 83 87 91 94 97 99 99 100 100 100 100
48 56 56 54 52 53 61 65 57 62 83 77 59 58 54 48 49 46 47 49 48 52 54 52 54 53 53 54 52 54 54 50 49 47 47 50 49 46 43 44 50 51 50 52 58 65 71 74 77 77 76 74 70 66 64 63 62 61 58 55 55 56 57 57 56 54 54 54 55 55 55 57 59 59 60 61 60 59 60 61 62 64 65 68 75 83 90 96 99 99 100 100 100 100 100 100 100
50 54 53 55 62 64 72 84 79 80 93 78 57 59 57 54 57 52 49 51 52 53 52 50 50 48 51 52 48 51 52 50 51 55 57 58 58 56 51 49 52 54 53 53 58 67 75 80 82 80 77 75 72 70 71 70 66 63 61 59 60 62 62 61 60 59 58 59 60 63 64 67 69 71 72 71 71 72 75 77 78 79 78 78 80 84 90 97 100 100 100 100 100 100 100 100 100
53 54 55 60 70 71 73 87 89 85 90 77 60 58 56 54 54 50 49 51 50 49 47 47 45 41 43 43 42 48 52 53 58 63 65 64 66 67 66 66 66 65 63 61 65 73 79 84 85 84 82 79 78 78 78 75 71 69 68 67 68 68 67 66 66 67 69 70 72 75 77 79 80 79 78 78 79 82 86 88 88 89 89 89 89 90 93 97 99 100 100 100 100 100 100 100 100
57 57 60 63 70 74 75 80 80 82 88 83 74 67 57 51 48 48 53 51 47 46 44 42 41 40 41 42 45 49 56 64 66 65 62 59 59 63 67 71 72 74 77 77 79 83 87 88 87 86 85 83 84 86 85 83 80 79 78 77 75 73 73 75 76 80 82 83 83 83 83 83 83 81 78 78 80 83 87 88 88 90 92 93 94 96 99 100 100 100 100 100 100 100 100 100 100
65 63 63 65 67 71 79 80 74 80 91 90 88 85 65 47 42 45 50 48 45 45 43 41 41 43 44 46 47 48 54 62 61 54 51 50 51 54 58 62 66 70 76 82 88 92 93 92 91 91 90 90 91 91 92 91 89 91 89 84 80 80 83 85 86 87 88 88 88 88 88 87 86 84 82 80 81 81 81 81 82 84 88 91 94 97 100 100 100 100 100 100 100 100 100 100 100
68 70 69 69 69 69 81 86 72 74 88 85 86 90 68 41 37 45 50 48 48 49 48 47 47 48 49 50 51 51 52 53 50 46 46 49 53 57 60 63 68 73 74 76 86 95 98 98 97 98 98 98 98 97 97 97 97 99 97 92 91 92 94 95 93 91 91 92 94 93 92 91 90 89 87 85 83 81 80 79 78 77 77 80 83 89 95 99 100 100 99 100 100 100 100 100 100
Wind_Speed
15 14 14 15 15 15 14 17 19 22 22 20 23 24 21 18 18 17 15 14 13 14 15 15 14 14 14 14 15 14 14 14 13 14 13 12 13 13 13 13 13 14 14 15 15 16 16 17 17 18 18 18 19 19 20 20 21 22 23 23 23 24 24 24 24 24 24 24 25 25 25 24 24 23 22 22 22 22 22 21 20 20 20 21 21 20 20 20 20 20 19 19 18 17 16 15 15
14 15 15 15 14 14 13 18 17 19 23 21 23 24 21 19 17 14 13 13 11 13 14 15 16 16 16 16 16 15 15 15 15 15 16 16 15 16 16 17 17 18 18 18 18 18 19 19 19 20 20 21 21 21 21 22 22 21 21 22 22 23 26 26 25 25 25 25 26 26 26 26 26 25 25 24 23 23 23 22 21 21 22 22 22 21 21 21 21 21 20 19 19 17 16 15 15
15 15 16 14 14 14 14 19 17 16 23 24 24 21 19 19 15 8 8 12 12 14 15 15 16 16 17 17 16 16 15 15 16 16 17 17 17 17 18 19 20 21 21 22 22 23 23 23 23 23 23 23 23 23 23 22 22 22 22 22 21 21 23 27 28 27 26 26 27 27 27 27 28 27 27 26 25 24 24 23 23 22 23 23 23 23 23 22 23 23 21 20 19 17 16 15 15
16 16 16 15 14 15 15 19 17 14 20 23 19 17 17 14 11 9 10 12 13 14 14 14 15 15 16 16 16 16 15 15 16 16 17 17 16 16 17 18 19 20 21 22 23 24 24 24 24 24 24 24 24 25 25 25 25 26 27 26 24 22 22 24 27 28 28 28 27 28 28 29 29 29 29 28 27 26 25 24 24 24 24 24 24 24 24 24 24 24 23 21 19 17 16 15 15
18 17 16 16 16 17 17 18 19 16 17 18 13 12 14 11 10 12 11 12 13 13 12 13 13 13 13 14 15 15 15 15 15 16 16 16 16 16 17 18 19 20 21 22 23 23 24 24 24 25 25 26 26 27 27 28 29 30 30 30 29 28 27 27 27 28 29 30 29 28 29 30 31 31 31 30 29 28 27 25 24 25 25 26 26 26 25 25 25 25 24 22 20 17 16 16 16
19 18 17 17 16 17 18 17 19 19 16 14 12 9 9 10 12 13 12 12 13 13 12 11 10 10 10 12 13 13 13 14 15 16 16 16 16 17 18 19 20 21 22 23 24 24 25 25 26 26 27 28 28 29 29 29 30 30 31 31 31 32 32 32 32 30 30 31 32 31 30 31 32 32 33 32 31 30 28 27 26 26 26 27 27 27 27 27 27 26 25 23 20 18 16 16 17
19 18 17 18 17 17 18 18 18 17 14 13 13 10 8 9 12 14 14 13 13 13 11 8 7 8 10 12 12 13 14 14 16 16 17 17 18 19 20 20 21 21 22 23 24 24 25 26 27 27 28 29 29 30 30 29 29 29 30 30 31 32 32 32 33 33 32 32 33 35 34 33 33 34 34 34 33 32 30 29 28 27 27 27 28 28 29 28 28 28 26 24 22 19 18 17 18
20 19 18 18 18 17 18 20 17 15 14 13 13 12 12 11 13 15 15 14 13 12 10 8 9 11 12 13 13 14 15 15 16 17 18 18 19 20 20 20 21 21 21 22 23 23 24 25 26 27 27 27 28 29 29 29 29 29 30 31 31 31 31 30 31 32 33 33 34 36 37 36 35 35 35 35 34 33 32 31 30 29 29 28 29 29 29 29 30 29 28 26 24 22 20 20 19
19 19 18 18 19 18 18 18 17 16 15 14 13 13 13 15 16 17 17 16 14 14 12 11 12 13 14 14 14 15 14 14 15 16 17 17 18 19 19 19 20 20 20 21 22 23 24 24 24 25 25 25 25 26 26 26 27 27 28 30 30 30 30 30 30 30 31 32 33 36 38 38 38 36 35 35 35 35 34 33 32 31 30 30 30 30 30 30 31 31 29 28 26 25 24 23 22
16 18 18 18 19 18 19 18 18 17 16 15 14 14 14 16 18 19 19 18 17 16 15 15 15 14 15 15 14 14 14 13 14 15 16 16 17 17 18 18 19 20 21 21 22 23 23 24 23 23 24 24 24 24 24 24 25 25 26 28 28 29 29 30 29 29 29 30 32 34 37 39 39 38 37 37 36 36 36 34 34 33 32 32 32 31 31 31 32 32 31 30 28 27 26 25 25
15 17 17 17 18 19 20 20 19 17 15 14 15 15 16 17 18 19 20 19 19 19 17 17 17 16 17 16 15 13 13 13 14 15 15 15 15 16 17 17 18 20 21 22 23 23 24 24 24 24 23 23 23 23 23 24 25 25 26 27 28 29 29 30 30 29 29 29 30 32 35 38 40 40 39 39 38 37 36 36 35 34 33 33 33 33 33 32 32 32 32 31 30 30 29 27 27
15 17 17 17 17 18 20 20 20 19 17 16 15 16 17 18 19 20 21 20 21 20 19 20 19 19 19 17 16 14 14 14 16 17 16 15 14 15 16 17 18 19 21 22 23 23 24 24 24 24 23 23 22 22 23 24 25 25 26 26 27 28 29 31 31 31 30 29 29 30 32 36 39 41 40 40 39 38 37 37 36 35 35 35 35 34 34 34 33 32 32 32 32 31 31 30 29
15 17 17 17 17 18 20 20 20 20 18 17 16 16 16 18 20 20 20 20 20 19 20 22 21 21 21 19 18 17 16 18 20 20 19 18 16 15 16 17 19 20 21 21 21 22 22 22 23 23 23 23 22 22 22 23 24 25 26 26 25 26 28 29 30 31 29 28 29 30 30 32 35 39 40 41 40 39 38 37 37 36 36 36 35 35 35 35 35 33 34 33 32 31 31 32 31
17 17 18 18 18 19 20 22 22 20 17 15 15 16 16 18 20 20 18 17 16 17 19 21 21 20 21 21 20 19 19 21 22 22 21 21 19 18 18 19 19 20 21 21 21 21 22 21 21 22 22 22 22 22 22 22 23 24 25 25 25 26 27 26 26 28 27 28 30 30 29 30 32 35 38 39 40 39 39 38 38 37 37 36 36 36 35 35 35 34 34 33 32 31 32 34 34
18 18 18 19 20 21 22 23 22 20 16 13 13 14 16 18 20 20 18 16 16 17 18 18 19 20 21 21 20 20 20 21 22 22 22 22 22 22 22 22 22 22 22 23 23 23 23 23 22 22 22 22 22 23 23 23 24 25 25 24 24 26 28 26 26 27 27 30 31 31 30 30 32 34 35 37 39 39 39 39 38 38 38 37 37 36 36 36 36 35 35 34 32 33 34 36 34
18 18 19 21 23 23 23 22 21 19 15 12 11 12 15 17 19 20 19 19 18 17 18 18 19 20 21 22 21 20 20 20 21 23 24 24 25 26 25 25 25 24 24 24 24 25 25 24 25 25 25 24 24 24 25 25 25 25 25 25 24 25 27 27 27 27 27 31 32 31 30 31 32 33 35 37 38 39 40 39 39 39 39 38 38 37 37 37 37 37 36 34 33 34 35 33 32
18 20 22 24 26 24 23 20 19 18 15 13 12 12 14 17 19 20 22 22 20 20 20 19 20 21 21 22 22 22 22 23 23 24 26 27 27 28 27 27 26 25 26 26 26 26 26 27 28 28 28 27 27 26 25 25 25 25 25 25 24 25 27 27 28 27 28 31 33 31 30 32 33 33 35 37 39 40 41 41 40 38 38 38 39 39 39 39 38 38 38 35 35 35 34 32 32
20 21 24 27 26 24 22 19 18 17 16 15 14 14 16 18 20 22 23 24 25 25 23 22 23 23 23 23 23 25 25 26 25 26 26 27 28 29 29 29 28 27 28 28 29 29 29 30 32 32 31 31 31 29 27 26 27 27 27 26 25 25 27 27 28 28 28 31 33 32 31 33 34 34 35 38 41 41 41 41 40 39 38 38 39 40 40 40 39 39 38 36 36 36 36 36 35
21 22 25 27 25 23 21 19 17 16 16 16 15 16 18 20 22 24 26 27 28 29 27 26 26 25 24 25 26 28 28 28 28 28 27 27 28 29 31 32 33 32 32 32 32 32 33 34 35 35 34 34 34 33 32 30 29 29 30 30 28 27 27 28 29 29 29 30 31 32 34 33 33 34 35 39 42 39 38 40 41 39 39 40 40 41 41 40 40 40 39 37 36 36 37 37 36
21 23 26 26 24 23 21 19 18 17 18 18 18 19 20 21 23 26 28 30 31 30 29 28 29 27 26 26 27 29 30 30 29 30 29 29 29 30 31 32 34 35 36 36 35 35 36 37 37 37 37 37 36 35 35 34 32 32 32 32 32 31 30 29 30 30 30 30 30 32 34 33 33 35 36 39 39 36 34 37 40 38 40 42 40 40 40 40 40 40 39 36 34 34 35 35 36
23 25 26 25 23 21 20 19 18 19 20 21 21 22 22 22 25 27 28 32 32 29 28 29 30 29 30 29 29 31 32 31 31 31 32 32 33 33 34 33 34 35 37 37 37 37 39 40 39 39 39 39 39 37 37 36 35 34 33 33 33 33 32 32 32 32 32 31 31 31 32 34 35 36 37 39 36 32 31 33 35 36 39 40 38 38 39 40 39 38 38 35 32 33 34 35 36
24 25 24 24 23 21 19 18 19 20 21 23 24 25 25 25 27 27 28 33 31 26 26 29 31 31 33 33 33 34 34 34 33 34 34 35 35 36 37 38 38 38 37 36 36 37 38 40 40 40 41 40 40 39 38 38 36 35 33 32 32 32 33 33 33 34 33 32 32 32 33 34 35 35 37 38 37 33 32 32 34 35 38 40 40 39 40 41 39 36 36 34 32 33 34 35 36
24 24 24 24 24 23 21 21 21 22 23 25 26 27 27 28 28 26 29 34 30 26 25 28 31 32 34 36 38 38 39 39 39 38 37 38 38 39 40 41 42 41 40 39 38 38 38 40 42 42 42 41 40 39 39 39 38 37 34 33 32 32 32 32 33 34 35 34 34 34 35 35 35 36 36 38 38 38 36 34 35 36 39 42 43 44 43 44 43 40 37 37 37 37 36 35 35
24 25 24 23 24 24 23 24 23 24 26 26 28 30 29 30 29 28 32 33 29 26 26 29 31 32 35 37 39 40 41 42 43 42 41 42 42 42 43 44 44 45 44 43 42 42 42 42 43 43 43 42 41 39 39 39 39 38 36 34 33 33 34 33 32 34 36 36 36 36 36 37 36 36 38 39 40 40 38 36 36 37 38 40 41 42 41 41 42 41 39 38 38 39 39 38 37
25 26 24 24 25 25 26 26 26 26 28 29 31 32 31 30 31 33 32 29 27 27 28 30 32 34 36 38 39 41 43 44 44 44 44 45 46 46 46 46 46 47 47 46 46 45 46 45 44 44 43 42 41 41 40 39 39 40 39 38 34 33 34 34 33 33 35 37 38 39 38 38 35 37 41 41 41 41 40 38 38 38 39 39 40 40 38 37 38 37 36 36 37 37 38 39 40
24 24 25 26 27 27 28 28 28 29 30 31 32 32 31 29 34 35 28 26 27 28 29 30 32 35 37 39 41 43 45 45 44 44 45 46 47 47 47 47 48 49 49 49 48 47 47 46 44 45 45 44 44 44 44 42 41 41 42 42 39 36 34 33 33 33 35 37 40 41 41 41 38 40 41 38 40 42 41 41 41 41 42 42 43 42 41 40 40 39 39 39 40 40 40 40 40
24 25 27 28 29 30 30 30 30 31 32 33 34 34 31 30 37 29 11 13 17 19 24 27 31 36 38 40 41 43 43 43 43 43 44 45 46 46 46 47 47 49 49 48 47 46 44 43 42 42 44 45 46 47 47 47 45 43 43 44 45 43 38 36 35 35 36 37 39 41 42 43 42 42 39 36 41 42 41 43 44 45 46 47 48 48 47 46 45 44 43 42 43 42 40 39 39
27 29 30 30 31 32 32 31 31 32 33 35 35 37 35 35 41 27 8 11 17 20 25 28 32 35 36 38 38 38 38 38 38 38 40 40 41 41 41 42 43 44 44 44 43 42 41 40 39 38 38 40 40 41 42 45 47 46 47 47 47 44 39 38 37 37 37 38 40 41 42 45 45 43 40 38 39 40 42 44 43 42 44 46 47 48 48 47 47 46 46 45 44 43 40 38 38
28 30 32 31 32 33 32 31 32 32 34 34 33 39 40 38 39 30 21 25 26 28 31 31 33 33 33 34 34 34 34 33 33 34 34 34 35 35 36 36 37 38 38 38 38 37 37 37 36 36 35 35 35 35 35 37 39 40 40 41 40 38 35 37 37 37 38 39 41 42 43 46 46 45 43 41 40 39 40 43 44 43 41 40 40 40 42 41 43 46 46 46 44 42 40 39 38
27 28 32 32 32 33 30 27 29 30 31 29 29 39 44 37 33 30 28 30 30 31 32 31 30 28 29 31 31 32 31 31 31 31 30 30 31 32 32 32 33 34 34 34 33 33 34 34 34 35 34 34 34 34 34 32 31 30 31 32 33 33 34 36 37 38 40 41 41 42 43 44 45 45 45 44 43 42 41 40 41 41 41 39 35 36 39 39 40 43 45 44 43 42 41 40 39
26 27 29 30 32 35 30 26 28 28 28 27 27 38 45 37 32 31 29 29 30 32 32 30 29 27 29 31 32 32 31 31 30 30 30 30 32 31 31 31 31 31 31 31 31 32 33 33 34 34 34 34 33 32 32 31 29 28 29 31 33 34 36 39 40 40 41 42 41 42 42 42 43 43 44 45 45 45 45 43 39 37 38 41 39 37 39 41 40 40 42 44 43 42 42 41 40
26 27 29 30 32 35 33 29 29 29 27 27 26 33 40 35 31 30 27 26 27 29 28 28 29 28 30 31 32 32 31 31 30 31 32 33 34 33 33 32 32 32 32 32 33 33 34 34 34 33 32 32 32 31 31 31 31 31 32 33 36 38 40 41 42 41 40 41 41 41 40 40 41 41 42 43 42 43 44 44 42 40 38 39 40 39 38 40 40 39 40 43 43 42 43 42 41
27 30 33 33 33 34 33 30 29 28 27 28 29 31 36 33 30 30 28 28 28 28 27 27 29 30 30 32 32 31 31 31 32 32 34 35 35 35 35 35 35 36 36 36 35 35 35 35 35 33 32 32 32 32 33 33 34 34 35 36 38 41 42 43 44 43 41 41 40 40 40 39 40 41 42 42 43 43 42 42 42 41 41 41 40 39 38 37 37 38 38 39 40 41 42 42 42
27 27 31 31 30 30 31 30 28 28 27 28 30 35 40 38 34 34 32 31 33 34 33 33 33 34 34 34 33 33 33 33 34 35 36 37 38 38 39 40 41 40 40 39 39 38 38 37 36 34 33 34 34 34 34 35 36 37 38 39 41 42 44 45 45 44 43 43 42 42 42 42 43 44 45 45 46 46 46 46 45 43 43 45 42 40 40 38 37 37 37 38 39 40 41 42 41
22 22 26 28 28 28 31 32 30 30 31 31 34 40 44 43 40 38 33 31 34 37 37 37 37 37 38 39 39 38 38 38 38 39 40 41 42 43 43 44 45 45 44 43 42 41 41 41 39 36 35 35 36 36 36 37 37 38 39 41 43 44 45 45 45 45 45 44 44 45 46 47 47 47 48 49 49 50 51 51 51 48 45 45 44 45 44 41 39 40 39 40 42 41 41 41 42
24 25 27 29 32 34 34 33 30 32 37 38 39 44 47 45 41 37 33 31 33 36 36 38 39 39 40 41 42 42 42 42 42 43 43 44 45 46 46 47 47 47 46 44 43 42 41 41 41 39 37 36 36 37 38 38 38 39 39 41 43 45 46 46 44 44 44 44 43 44 45 47 48 48 49 49 50 50 52 53 52 51 49 46 44 46 50 47 43 43 43 44 46 45 46 44 43
29 30 30 32 36 37 35 32 29 30 38 42 39 43 46 44 42 39 36 35 36 37 38 40 40 40 41 42 43 43 43 44 44 46 45 44 45 45 45 45 45 45 43 41 40 39 40 40 40 39 39 37 37 38 39 39 39 39 39 40 41 43 45 46 45 44 44 44 44 44 45 46 47 48 48 48 49 49 50 52 51 50 49 49 46 43 49 53 48 44 44 46 47 49 50 46 45
29 30 31 33 35 37 35 31 29 28 35 42 39 43 48 46 45 43 41 42 42 39 38 38 37 37 37 37 38 40 41 42 43 44 44 43 43 43 43 42 41 41 40 39 38 38 38 38 39 40 40 39 39 39 40 40 40 40 40 40 41 42 44 45 46 46 45 45 45 46 47 48 49 50 49 49 49 49 49 50 50 48 46 50 52 48 47 52 53 49 45 46 47 48 47 46 46
27 29 31 34 34 36 37 32 29 29 35 41 40 46 52 49 48 47 44 42 37 30 29 30 30 30 31 31 32 34 35 36 37 38 38 39 40 41 41 40 39 39 38 38 38 38 38 39 40 40 41 41 39 39 39 39 40 40 40 41 42 43 44 45 46 47 48 48 48 48 49 50 51 51 51 50 48 47 47 46 47 47 44 46 51 53 52 52 53 53 49 46 45 44 44 46 47
27 28 31 35 34 34 37 36 32 31 35 41 42 48 54 51 47 44 37 32 28 26 29 31 30 32 32 32 32 32 33 33 33 34 34 36 37 38 38 38 38 38 38 39 40 41 41 40 40 41 40 40 39 39 39 39 38 39 40 40 42 43 44 46 47 48 49 50 51 51 51 51 51 51 50 49 46 44 45 45 44 44 43 44 46 48 50 50 50 51 49 45 44 44 43 45 47
28 29 31 34 34 32 36 36 33 34 37 37 36 40 47 45 39 37 35 35 36 36 35 34 32 32 31 31 30 30 30 29 29 29 30 32 33 34 35 35 36 37 38 39 40 40 40 40 39 39 39 39 39 39 39 40 39 38 38 39 41 42 44 46 47 48 50 51 51 52 52 51 50 49 49 48 46 44 43 43 42 41 41 43 45 44 44 45 46 48 49 47 45 45 45 44 45
30 30 29 31 31 29 31 30 29 34 33 28 23 18 26 38 38 39 45 44 41 37 33 33 31 28 26 25 25 25 25 25 25 25 27 29 30 32 33 34 36 37 37 38 38 37 37 36 36 36 37 38 39 39 39 40 39 39 38 39 40 42 43 44 46 47 48 49 50 50 50 49 48 47 47 47 46 44 42 41 41 40 40 41 45 45 44 43 43 46 49 50 49 48 46 45 45
32 30 28 27 28 27 28 26 24 26 26 27 24 13 21 45 50 44 44 41 36 33 34 33 25 17 18 20 21 23 24 24 24 24 25 27 29 31 32 34 35 36 37 36 36 35 35 35 35 35 35 36 37 37 37 37 38 39 39 40 40 42 43 43 44 44 45 46 46 48 47 46 45 44 44 44 45 45 43 41 39 39 40 41 44 46 45 44 44 44 45 47 51 51 48 46 45
31 31 28 26 26 25 25 25 24 28 34 36 32 21 21 38 50 46 41 38 35 34 30 22 15 15 20 22 22 23 23 25 25 25 26 27 28 30 31 33 35 36 37 37 38 37 37 36 36 35 35 35 35 35 36 36 37 38 39 40 41 42 42 41 41 41 41 42 42 43 44 43 43 43 43 43 44 45 45 42 39 38 40 41 43 46 47 45 44 45 45 45 47 50 50 49 48
30 29 27 25 25 24 25 26 28 30 32 28 19 11 11 26 44 45 39 38 34 28 20 15 19 23 21 18 18 20 23 25 27 27 28 28 28 28 29 31 33 35 36 37 39 39 39 39 38 37 36 35 35 35 36 36 37 38 39 41 41 40 39 38 38 38 38 38 38 39 39 40 41 42 43 43 43 44 44 41 38 38 40 42 42 45 47 48 47 46 47 46 47 47 48 50 50
28 27 27 27 26 28 27 27 29 25 21 22 17 11 9 20 38 37 32 33 26 18 20 26 26 19 15 18 23 26 28 28 28 28 29 29 29 29 28 29 30 32 34 35 36 36 37 37 37 37 35 35 35 36 37 37 38 38 39 40 38 37 36 36 36 36 36 35 35 36 36 37 38 38 39 40 40 39 38 38 37 38 40 42 42 43 46 48 49 49 48 48 48 48 48 48 48
28 28 28 29 28 28 26 24 23 14 11 18 19 16 13 12 22 27 26 26 25 27 31 28 18 14 21 29 32 31 29 27 26 27 28 30 30 30 30 30 30 31 32 33 34 34 34 35 35 35 35 35 35 36 37 37 37 38 38 37 37 36 35 35 35 35 35 35 34 35 35 36 36 36 36 36 35 34 34 35 36 38 39 41 42 43 44 46 49 50 50 49 49 49 49 48 48
25 25 25 24 20 16 14 13 9 4 7 13 13 12 13 14 16 27 33 34 33 32 25 19 19 26 34 34 32 31 28 26 27 27 28 29 30 32 32 33 32 32 33 33 33 34 34 35 35 35 35 35 36 36 37 37 37 37 37 36 35 35 35 36 37 37 36 36 36 35 35 36 36 36 35 34 34 33 33 34 35 36 38 39 40 42 43 44 47 49 49 49 49 49 49 47 45
14 17 17 12 7 6 5 4 2 5 10 14 15 11 12 24 32 37 35 28 23 22 23 27 32 34 33 32 32 30 27 27 28 28 29 30 31 33 34 35 35 35 35 35 34 34 34 35 35 34 34 35 35 36 36 36 36 36 36 35 34 34 35 36 36 37 38 38 38 38 37 37 37 36 36 35 34 34 34 35 35 35 36 37 38 40 41 43 44 45 46 46 45 45 46 44 42
10 13 13 7 1 3 4 4 2 6 12 18 19 12 12 25 29 23 19 20 25 32 35 34 34 32 31 31 28 26 26 27 29 30 30 31 32 35 36 38 38 39 39 38 36 35 35 35 35 34 34 34 35 35 36 36 35 35 34 33 33 34 34 35 36 36 37 38 38 38 38 38 37 37 36 35 34 34 34 34 35 35 34 34 35 36 38 39 40 41 42 42 41 40 40 41 41
17 17 15 13 10 7 6 5 3 6 14 23 19 8 9 17 19 22 31 37 38 37 33 29 29 28 26 24 23 23 26 28 30 32 32 33 35 37 39 38 37 39 40 40 39 36 35 35 34 34 34 34 34 34 35 34 33 33 33 33 34 35 36 37 37 38 38 39 39 39 38 37 37 36 35 34 33 32 32 32 33 33 32 32 32 32 32 34 35 35 36 37 38 39 39 39 40
15 14 14 15 16 16 13 14 18 16 14 19 17 13 21 31 37 43 42 36 32 27 26 25 22 21 21 22 24 25 27 30 34 36 36 36 37 39 41 38 35 36 38 39 39 37 35 34 33 33 33 34 34 34 33 32 32 32 33 34 35 36 37 38 38 39 39 39 39 38 37 36 34 32 30 30 29 29 29 29 29 29 30 30 29 29 29 29 30 31 31 32 33 36 38 40 41
11 12 14 17 18 19 17 17 24 19 10 14 20 24 34 39 37 34 27 25 24 19 20 22 20 21 24 26 28 29 34 38 39 39 38 38 39 41 43 40 36 35 35 36 37 36 35 34 33 34 33 34 33 33 32 31 31 32 33 34 35 36 37 38 38 38 37 36 35 34 33 31 29 27 26 27 27 26 26 25 25 26 28 28 27 27 27 28 28 28 29 29 29 29 31 34 37
17 17 19 18 16 17 15 8 9 9 6 11 19 26 34 30 23 24 25 25 23 20 25 31 30 30 31 33 37 39 42 43 39 37 37 39 41 43 45 43 39 37 36 36 37 36 35 34 33 34 34 34 34 32 31 31 31 32 33 34 34 35 35 35 35 34 33 32 31 30 28 27 26 25 25 25 25 24 24 23 23 24 25 25 25 26 26 27 28 29 29 29 29 28 27 28 29
19 20 21 19 15 14 12 6 5 7 5 7 15 24 31 31 29 32 33 31 32 36 39 41 41 42 42 42 42 42 41 39 34 32 34 38 40 41 42 43 41 40 38 37 37 37 35 34 33 33 34 34 34 32 31 31 31 32 32 32 31 31 32 31 30 29 29 28 28 27 25 25 25 25 25 25 24 24 23 23 23 23 23 24 24 25 25 26 27 28 29 30 30 30 29 28 28
17 20 22 23 22 19 17 14 11 9 6 7 12 14 22 35 37 36 36 36 41 45 46 47 48 48 46 43 41 41 39 34 31 33 38 42 43 42 41 41 40 40 40 39 38 36 35 34 34 33 34 34 33 31 30 30 31 30 30 29 29 29 29 29 28 28 27 27 26 25 25 24 25 25 25 24 24 24 25 25 25 24 25 25 25 25 25 25 26 27 28 28 29 29 29 29 28
18 21 23 24 24 24 22 20 22 18 8 6 7 5 18 41 46 42 42 43 46 49 50 50 49 47 47 44 43 44 42 38 39 44 48 49 48 47 45 44 42 40 40 40 39 38 36 34 34 33 33 33 33 31 30 30 30 29 28 28 28 29 29 28 28 28 28 27 26 25 24 24 24 24 24 24 24 25 25 26 27 27 27 28 27 27 27 27 27 27 28 28 28 27 27 26 26
25 25 26 26 26 26 19 13 21 23 13 12 12 6 21 48 53 48 48 47 48 48 46 47 48 48 50 49 49 50 49 47 49 51 52 51 49 46 44 43 41 39 38 38 39 39 37 35 34 34 33 33 32 31 31 31 30 28 28 29 29 29 29 28 28 28 28 27 26 25 24 24 24 24 24 24 24 25 26 27 27 28 28 29 30 30 30 30 30 30 30 30 29 29 27 26 25
Wind_Direction
245 237 226 219 212 201 200 193 191 201 207 217 222 226 229 230 237 239 239 237 235 237 237 235 234 228 228 234 235 234 237 242 249 253 255 255 255 256 259 263 264 265 266 267 268 269 271 272 273 273 272 270 266 263 264 266 269 270 273 275 272 265 261 261 260 259 260 261 262 262 260 258 256 254 253 255 257 259 261 263 265 265 265 266 268 272 276 278 279 280 282 283 283 282 280 278 277
223 219 214 208 205 200 197 191 192 204 209 221 224 224 229 230 238 240 236 235 235 236 234 229 229 229 227 233 237 239 240 243 250 256 260 261 260 261 261 262 263 265 266 268 269 270 272 272 272 272 271 270 269 267 266 267 268 270 272 274 274 267 260 257 257 258 258 259 260 261 261 260 258 256 254 255 256 258 260 262 263 262 262 263 266 270 273 276 278 278 279 280 280 281 280 277 275
204 204 203 197 196 196 192 190 194 204 208 222 226 226 233 234 235 233 223 223 225 228 227 225 226 230 230 233 240 245 248 248 254 259 264 265 266 267 266 266 265 266 267 268 269 270 271 272 271 272 272 271 270 270 270 270 270 273 275 274 273 272 265 259 255 256 257 257 258 259 261 261 260 258 257 256 256 257 259 261 262 262 261 262 264 267 270 273 275 277 277 277 278 279 278 275 273
196 196 194 191 193 195 192 192 197 204 209 221 229 230 234 234 228 227 228 221 225 229 230 230 230 232 234 239 244 249 252 253 258 262 265 268 269 269 269 269 268 268 268 268 269 269 269 270 270 270 270 270 270 270 271 271 273 275 277 274 268 267 268 265 259 257 257 258 258 258 259 260 260 259 258 258 257 258 259 260 261 262 262 263 264 266 268 271 273 275 276 276 277 277 276 274 272
191 191 191 188 191 196 196 198 205 211 211 217 225 231 232 225 216 222 225 217 221 228 231 232 234 239 241 247 250 254 257 259 263 265 268 271 270 269 269 268 268 268 268 268 269 269 269 269 270 271 271 271 270 270 270 271 274 276 276 273 268 265 265 266 264 261 259 258 258 258 258 258 258 258 258 258 258 258 259 260 261 261 262 263 264 265 267 269 270 271 273 274 274 274 274 272 271
188 189 190 189 191 198 200 204 212 216 214 217 222 231 236 224 218 219 214 208 210 215 221 228 238 250 256 260 263 265 267 269 271 273 274 276 274 272 272 271 271 270 269 268 268 269 269 270 271 273 274 274 273 272 272 272 274 275 275 272 269 267 266 265 265 264 261 259 256 256 256 255 255 256 257 258 258 258 258 259 259 259 260 261 262 264 266 268 269 269 270 270 271 272 271 270 269
185 187 190 191 195 201 206 213 218 219 217 220 222 226 237 233 227 226 220 213 207 209 216 229 252 265 269 268 271 275 274 274 275 277 278 278 277 276 275 275 274 273 272 271 270 270 270 271 273 275 276 276 275 275 274 274 273 273 273 272 270 269 268 267 265 263 262 260 257 253 253 254 254 254 256 257 257 257 257 257 257 258 258 259 261 262 264 266 268 268 268 268 268 269 268 267 267
186 189 194 196 202 207 214 221 224 226 223 221 225 228 237 241 237 233 231 228 221 217 217 227 251 261 264 264 270 274 275 277 277 277 279 280 278 277 277 277 277 275 274 273 273 273 273 273 274 276 277 277 277 277 277 277 275 272 270 270 270 270 270 268 266 263 261 260 256 251 250 252 253 254 255 256 257 257 256 256 256 256 257 257 258 260 262 265 266 267 267 266 267 268 267 265 266
197 197 200 201 209 215 221 228 230 234 233 230 235 238 237 237 237 236 235 236 237 234 228 229 242 255 258 261 269 274 279 282 282 282 281 281 281 280 280 280 280 278 276 275 275 275 276 276 276 278 278 279 279 279 280 280 278 275 271 269 269 270 271 269 266 264 261 258 256 252 248 249 251 253 254 254 256 256 256 256 256 256 256 256 257 258 260 262 264 266 266 265 266 267 267 266 266
211 205 204 206 212 218 226 232 235 239 242 242 242 241 236 233 235 237 235 233 237 239 237 237 242 255 261 262 269 276 283 286 288 287 286 285 284 283 283 282 282 282 280 279 278 277 277 278 279 280 281 281 281 280 279 280 280 277 274 270 269 270 270 269 267 266 265 261 258 254 250 248 250 251 252 253 253 254 255 255 255 256 255 255 256 257 258 260 262 264 266 266 265 266 266 266 266
224 217 210 211 216 221 229 237 239 241 245 244 242 243 241 238 237 238 237 234 235 238 239 243 247 254 261 265 268 274 280 285 285 282 285 288 288 287 286 285 284 283 282 281 281 281 281 281 283 284 284 284 283 281 278 277 277 276 274 272 271 270 270 270 270 268 267 265 261 259 254 250 249 250 251 252 252 252 253 253 253 254 254 254 254 255 256 257 260 262 264 265 266 266 266 265 267
233 230 222 219 222 226 234 241 243 243 244 243 244 248 247 243 241 239 240 238 238 240 240 241 245 250 256 263 265 269 273 276 274 273 278 281 283 287 287 288 286 284 282 281 281 282 283 284 285 286 286 286 285 284 281 278 277 275 273 271 271 271 271 272 272 271 269 266 264 263 259 254 251 250 250 251 252 252 252 251 251 251 252 252 253 254 254 256 258 260 262 263 265 267 266 266 267
234 235 231 227 230 233 238 243 245 246 245 245 248 250 245 239 237 236 237 237 238 240 240 239 241 248 254 259 262 266 267 268 269 270 271 270 271 276 281 285 285 285 284 283 282 281 283 284 285 286 286 286 285 285 284 282 280 278 276 274 273 272 269 271 274 273 270 267 265 264 262 259 254 251 250 250 251 252 252 252 251 250 250 250 252 252 252 254 256 258 261 261 263 265 265 265 265
232 233 233 232 237 239 241 244 247 249 248 246 247 244 239 232 230 231 231 234 237 236 237 240 242 249 255 259 262 265 265 267 270 273 272 271 271 272 276 278 280 281 280 280 279 279 280 281 282 283 285 285 285 286 286 285 282 281 281 280 279 277 274 274 274 272 269 267 266 264 263 262 257 253 251 251 252 252 253 252 252 251 250 249 250 251 251 253 255 256 259 259 261 261 261 263 264
234 234 234 236 241 242 243 246 249 253 254 252 247 240 236 231 228 229 231 232 233 235 236 241 246 249 256 260 262 263 263 266 271 275 276 275 275 275 276 277 277 276 276 275 275 276 276 276 275 275 276 279 284 287 287 286 284 283 282 283 284 283 281 280 277 274 273 270 267 263 262 262 259 254 251 251 252 252 252 252 252 251 250 249 248 250 250 252 254 255 257 258 259 258 258 260 264
239 240 240 241 243 244 246 249 253 258 262 261 254 245 239 234 233 233 234 234 231 233 236 239 245 248 253 257 260 262 263 264 267 272 274 275 277 277 277 277 276 274 273 272 272 273 274 274 273 270 269 270 274 278 281 282 282 282 281 282 283 284 283 281 277 276 275 273 270 264 263 262 259 257 254 251 250 251 251 250 249 249 248 247 247 248 249 251 252 254 255 256 258 257 256 258 263
239 241 241 243 245 247 252 255 259 264 267 266 259 249 240 235 238 239 239 239 236 234 235 238 243 247 251 255 260 264 265 265 266 269 271 274 275 275 275 274 272 271 270 269 269 269 269 270 270 270 269 268 267 268 271 273 275 277 278 278 278 279 280 279 277 274 272 273 270 266 266 264 261 260 258 255 251 249 248 246 245 245 246 246 246 247 248 250 252 254 255 254 256 257 257 257 261
238 239 241 245 249 254 260 265 267 268 267 264 256 251 245 238 239 243 243 243 243 240 239 242 246 248 253 257 261 263 264 265 266 268 269 270 270 270 270 270 269 267 267 266 266 266 266 267 269 270 270 269 268 267 266 266 268 271 273 274 274 275 275 276 276 274 271 272 272 272 271 266 262 263 263 259 254 247 245 245 244 242 243 244 245 247 248 251 253 255 256 254 254 255 257 257 259
241 243 246 251 255 259 264 269 271 271 267 263 256 253 250 244 242 244 246 245 245 247 245 246 249 251 257 261 264 265 265 267 268 268 266 265 265 265 267 269 270 268 267 266 265 266 266 268 271 272 271 271 270 269 267 265 266 268 270 272 273 274 275 275 275 275 273 272 274 276 274 269 265 265 265 261 256 251 245 245 245 241 242 242 243 245 247 250 252 253 254 253 253 255 256 259 261
244 247 251 256 260 263 268 270 271 272 269 264 259 255 251 248 248 248 249 248 245 249 251 250 251 253 257 261 264 267 268 269 270 269 266 264 262 263 264 267 270 270 270 269 269 269 270 272 273 275 274 273 271 269 268 267 266 268 270 272 274 275 276 276 276 276 274 272 272 273 274 274 269 265 264 260 259 259 251 247 248 247 247 248 248 248 250 250 250 251 252 252 253 256 259 262 264
245 248 253 259 262 265 268 269 269 268 268 266 263 261 254 249 251 250 252 253 248 248 252 254 256 256 256 257 259 261 264 266 267 268 267 265 264 264 263 263 265 267 269 271 272 272 274 274 274 276 276 275 273 271 270 268 267 267 268 271 273 275 276 277 277 276 273 272 272 272 272 272 270 267 265 260 257 255 251 249 251 253 254 255 256 255 254 253 251 250 252 254 255 258 261 262 263
248 251 256 261 264 265 265 266 267 266 267 266 264 264 259 255 254 252 254 255 254 252 252 254 256 257 257 257 256 256 258 260 260 262 265 266 266 266 266 265 265 267 269 270 271 272 273 274 275 276 276 275 275 274 273 270 267 266 266 267 270 272 274 275 275 274 275 274 273 272 270 269 269 269 265 258 254 253 254 256 255 255 257 259 260 258 255 253 252 251 252 254 256 258 260 261 263
253 256 257 261 264 265 264 264 264 265 264 263 264 265 264 263 260 255 255 255 258 258 254 254 254 254 255 255 256 256 256 257 258 259 261 264 265 266 267 268 269 270 271 271 271 271 273 275 276 276 276 275 275 274 274 271 268 265 264 265 267 269 271 272 272 272 273 273 272 270 269 268 267 267 265 259 258 260 262 261 258 259 261 261 260 259 257 255 254 254 256 256 255 257 259 261 264
256 258 259 260 263 265 265 265 263 263 263 263 265 266 267 269 270 265 257 257 261 260 257 257 256 254 254 253 254 255 255 255 255 257 259 261 263 264 265 267 269 271 272 273 273 273 274 275 274 274 274 273 273 273 272 271 268 266 263 262 266 271 271 270 271 272 271 270 270 270 268 266 264 264 264 261 260 263 263 261 259 260 261 261 259 258 258 255 255 256 259 260 259 260 261 263 264
255 260 263 262 262 262 264 265 265 265 264 265 266 267 269 273 277 270 258 259 266 263 260 258 258 257 255 255 255 255 255 254 254 255 257 259 260 262 264 266 268 270 272 273 273 272 273 273 272 272 271 271 271 272 271 270 268 267 264 261 266 274 275 272 272 272 272 271 268 268 268 268 267 263 261 260 260 260 261 260 260 260 259 257 255 255 255 255 255 256 259 260 262 263 263 265 265
258 263 266 266 265 264 264 265 267 268 267 269 270 270 270 273 276 270 261 266 267 263 261 259 260 258 256 256 256 255 255 256 256 257 257 258 259 261 263 265 267 268 270 271 271 270 269 269 269 268 268 268 268 270 269 268 267 267 265 262 264 272 277 274 272 271 271 270 268 268 268 270 270 265 264 265 262 261 260 259 259 258 256 254 253 253 254 255 256 257 258 258 260 262 262 264 265
263 265 267 269 270 268 267 266 267 269 270 272 274 272 270 272 271 265 260 271 268 266 261 256 256 254 252 253 253 254 256 258 258 258 258 259 260 262 263 264 264 265 266 267 268 268 267 267 266 266 266 267 267 268 267 265 265 265 265 264 266 272 276 273 271 270 269 268 269 268 266 267 266 266 269 267 264 265 264 260 258 257 256 254 253 253 254 255 255 255 255 256 258 260 260 261 262
262 264 265 265 266 266 265 266 266 267 269 270 272 273 270 266 263 256 236 261 271 272 259 249 249 249 250 252 252 254 255 256 257 257 258 258 260 261 261 261 261 262 263 264 265 265 266 265 265 265 267 269 270 271 268 264 263 264 264 266 270 273 273 269 268 269 269 269 269 267 264 264 264 265 269 268 267 268 266 263 263 262 261 259 255 253 253 254 254 253 253 253 255 256 255 256 258
260 263 264 262 261 261 261 263 265 265 267 269 274 274 268 259 259 260 260 265 269 267 257 250 250 251 253 254 253 253 253 254 255 255 256 256 257 257 258 259 260 261 262 263 264 264 265 265 265 264 265 267 269 271 269 266 264 264 265 266 269 271 272 270 269 272 271 269 269 268 266 264 265 265 267 269 270 271 270 267 265 265 265 265 261 253 251 252 252 252 251 251 252 253 251 251 255
258 262 266 268 268 266 263 264 266 268 270 273 276 273 267 262 264 268 270 270 267 263 260 259 260 258 258 258 258 257 257 258 258 257 257 258 258 258 260 261 261 263 264 265 265 264 265 267 268 267 267 265 264 265 267 267 266 267 268 269 270 270 271 272 272 276 275 270 267 268 268 266 266 266 266 267 268 272 276 274 271 269 264 262 263 257 253 253 253 253 251 251 252 252 250 250 252
262 265 267 269 271 273 277 279 277 276 276 277 274 269 270 273 277 278 277 274 269 266 264 264 265 265 263 264 264 263 263 263 261 259 260 262 263 264 265 265 265 266 267 268 268 266 266 267 268 269 269 268 265 264 265 267 269 270 271 271 271 269 270 272 275 279 278 272 266 263 266 267 267 267 267 268 269 272 275 275 277 274 264 259 260 258 256 256 256 254 252 250 250 249 248 250 252
264 267 268 267 268 276 285 287 285 283 281 278 270 266 271 277 282 283 282 279 276 272 267 265 264 263 262 263 264 265 265 263 261 261 262 264 265 267 268 269 271 271 272 272 271 271 270 270 271 270 269 268 269 268 267 270 271 271 271 270 270 270 272 274 277 279 277 273 268 262 261 264 267 268 269 270 274 277 277 276 276 273 266 262 258 253 256 259 258 257 255 252 251 250 248 250 253
260 261 265 268 271 279 286 285 284 284 281 278 271 266 271 277 280 280 281 282 280 275 270 266 264 262 260 260 260 260 259 258 259 260 262 264 266 268 269 270 272 273 274 273 273 272 271 270 271 271 268 267 268 268 268 269 270 270 271 270 270 271 273 276 277 277 276 272 268 265 263 264 268 271 272 273 276 281 282 279 276 272 267 266 259 247 253 260 259 259 257 255 255 255 255 255 256
264 265 268 275 278 281 284 283 286 287 281 279 275 270 274 279 279 278 279 280 276 273 272 270 268 266 264 263 260 257 255 255 256 259 262 265 266 268 270 271 273 274 275 275 275 274 274 274 273 271 266 264 264 265 266 266 266 267 268 269 270 272 273 275 276 276 277 275 270 268 268 269 271 274 276 277 278 281 283 281 278 275 270 270 261 243 248 257 256 259 257 255 258 260 262 261 259
283 283 280 284 284 280 278 281 289 289 282 280 278 274 276 281 282 282 282 278 273 272 273 273 270 268 267 266 263 261 259 259 259 260 263 267 268 269 271 272 273 274 275 275 275 275 275 276 276 273 267 264 262 262 263 263 264 264 266 267 269 270 272 273 274 274 276 277 274 271 272 273 273 275 277 280 281 281 282 283 282 279 274 273 261 242 244 253 255 258 256 256 258 261 266 265 263
285 283 282 283 283 279 279 284 291 290 284 281 279 279 282 284 284 284 283 279 274 272 272 272 271 270 271 271 271 270 270 269 267 266 267 269 269 270 271 271 272 274 275 274 273 272 273 274 274 273 270 266 263 262 262 263 264 265 265 265 266 268 270 271 273 274 275 276 276 275 275 276 276 276 278 280 282 282 282 283 284 282 277 274 266 250 245 250 254 257 256 257 258 260 264 267 266
275 277 277 277 277 279 285 291 297 296 286 283 285 285 286 286 285 285 284 280 275 273 274 274 274 275 275 274 274 274 273 272 270 270 271 271 271 271 271 271 272 273 274 273 272 270 270 270 269 268 268 266 264 264 265 265 266 266 265 264 265 266 268 271 274 276 276 276 277 277 277 278 280 280 280 281 282 282 282 283 283 282 279 274 271 262 252 248 249 253 256 258 259 261 263 266 266
273 274 273 272 273 282 292 295 299 300 289 287 292 291 288 287 288 288 287 285 282 281 280 280 279 278 276 276 275 273 272 272 273 273 274 274 273 271 271 271 272 273 272 272 271 270 269 268 266 265 264 264 264 265 266 267 266 266 265 264 265 266 267 270 273 276 277 278 278 278 279 279 280 281 282 282 283 282 281 280 280 280 278 273 271 270 264 255 247 248 253 257 260 262 264 266 267
268 268 269 271 278 287 292 297 303 302 293 293 297 293 290 291 291 292 293 291 291 290 289 288 287 287 287 286 283 281 281 281 280 279 277 274 272 271 272 272 272 271 271 270 270 270 269 268 266 265 264 263 264 264 265 265 264 264 264 264 265 266 268 269 271 273 275 276 277 278 278 279 279 281 282 283 282 280 278 278 278 276 274 272 271 271 273 269 256 248 249 254 258 260 263 262 260
269 269 268 273 285 291 291 300 307 301 295 295 297 294 291 293 295 295 298 296 296 298 298 296 296 299 299 295 291 289 287 284 281 279 276 273 272 271 271 271 271 271 271 271 271 271 269 267 266 265 264 263 262 262 263 263 262 261 262 263 264 265 267 269 271 273 274 276 277 278 279 279 279 279 280 280 280 278 276 276 275 273 270 268 270 271 273 274 266 254 248 251 256 258 262 257 250
275 274 273 281 292 294 293 301 306 300 296 295 298 297 293 297 299 298 299 298 299 302 301 301 306 309 305 299 296 292 289 285 281 278 275 273 272 271 270 271 271 271 271 272 271 270 268 266 265 264 263 262 261 261 262 262 261 261 262 262 264 265 267 269 271 274 275 277 278 278 279 278 278 277 277 276 276 275 274 275 273 269 266 264 265 267 267 269 268 261 253 253 258 260 261 259 253
277 278 283 290 296 297 296 302 305 301 299 301 309 308 296 297 297 297 300 300 303 305 304 310 316 312 304 302 300 298 297 295 290 284 278 274 272 271 270 270 270 270 271 271 270 268 266 265 264 264 263 262 261 261 262 261 260 261 263 264 266 268 270 271 272 273 274 275 276 277 277 277 276 275 274 273 273 273 270 271 270 266 264 261 260 262 262 261 260 260 258 256 259 261 261 261 260
277 283 294 296 295 296 296 301 300 293 296 299 298 293 292 295 296 298 302 305 306 308 312 318 320 316 310 311 310 307 306 304 301 295 287 281 275 271 270 268 268 269 269 269 269 267 265 265 265 266 265 263 261 261 261 261 261 262 265 268 270 272 273 273 273 273 273 273 274 275 275 275 274 272 272 272 272 273 271 269 268 266 264 261 258 258 259 258 256 256 258 258 259 261 260 259 260
281 290 299 296 294 295 295 297 292 288 294 293 289 283 280 288 295 301 304 305 307 311 319 326 329 326 319 314 311 308 307 307 305 302 295 290 284 278 273 270 269 269 269 268 268 268 267 267 267 268 266 263 262 261 261 262 263 266 269 271 273 273 274 273 273 273 272 272 272 272 273 273 273 272 270 271 271 271 272 271 269 266 263 261 258 257 256 256 255 254 255 257 259 260 260 260 262
286 292 296 293 294 292 290 291 288 290 295 290 288 288 265 277 291 300 304 303 308 317 325 331 326 323 321 318 319 317 315 313 308 304 299 294 290 286 282 277 272 270 269 267 267 267 267 267 268 268 267 264 263 264 265 265 267 269 271 273 273 273 273 273 273 272 272 272 273 273 273 273 273 272 271 271 271 272 272 272 270 265 261 261 259 257 256 255 254 254 253 254 256 258 260 261 264
285 289 291 290 291 289 290 289 285 287 282 272 274 271 253 280 292 299 304 305 313 324 320 319 321 325 330 328 324 319 315 311 307 302 299 295 292 289 287 285 281 276 272 269 268 267 267 267 267 267 267 265 265 266 268 268 269 270 272 272 272 272 272 272 272 273 272 273 274 274 275 275 274 274 274 274 275 274 274 272 269 265 261 260 260 258 257 256 255 254 254 253 254 255 257 258 260
284 286 288 289 290 290 289 283 278 280 268 268 278 270 250 276 297 299 305 310 314 313 312 316 325 330 325 321 319 318 315 311 308 304 301 299 297 293 290 287 285 283 279 274 271 269 268 268 267 268 268 267 267 268 269 270 270 271 271 271 271 271 271 271 270 271 273 274 275 275 275 276 276 276 276 276 276 275 274 271 269 267 263 259 259 259 258 257 257 256 255 254 254 254 255 256 257
282 284 286 290 295 294 289 276 261 237 262 280 299 291 247 231 270 293 300 305 305 306 313 320 320 318 317 319 320 320 318 314 312 309 305 302 299 297 294 290 286 284 283 280 276 273 271 270 269 269 269 268 268 269 270 270 270 270 271 270 270 271 270 270 269 270 272 273 273 274 274 275 276 276 277 276 275 275 273 272 270 268 266 261 259 259 259 258 258 258 258 257 255 254 255 257 258
284 284 282 284 311 327 296 262 214 221 260 283 301 303 252 247 270 290 298 302 303 307 314 314 314 317 318 321 321 319 319 318 316 313 308 303 299 296 294 292 289 286 285 284 280 277 274 272 271 270 269 268 269 269 269 269 269 270 271 270 270 271 271 270 270 270 271 272 272 273 273 273 274 275 275 274 273 272 271 271 272 270 269 266 261 259 258 259 259 259 260 261 260 258 257 258 258
295 289 276 251 224 8 288 266 279 260 269 286 293 288 269 272 283 293 298 302 304 306 309 312 316 320 320 321 319 317 317 316 315 312 306 302 300 297 294 291 289 288 287 286 284 281 277 274 272 270 269 268 268 268 268 268 268 269 269 269 270 271 271 271 271 271 272 273 273 273 273 272 273 272 273 273 271 271 270 269 270 270 270 268 266 263 260 261 261 261 261 261 261 261 259 258 257
292 283 266 249 243 243 258 278 289 284 292 295 291 269 263 280 289 295 297 300 303 306 311 316 321 323 324 322 316 312 310 310 311 308 302 299 299 299 297 293 288 286 286 286 286 283 280 275 271 269 267 266 265 265 265 265 266 267 267 269 271 271 272 272 272 272 272 272 273 273 272 271 271 271 271 271 270 269 268 268 268 269 269 269 268 267 265 264 264 265 265 263 260 259 258 257 257
288 273 249 250 259 255 257 268 271 280 298 293 279 264 270 282 290 294 297 301 306 312 317 322 328 327 324 318 311 307 307 308 308 304 299 296 297 298 297 294 288 285 285 286 286 284 281 275 270 267 264 263 263 262 263 263 265 267 269 271 272 272 272 272 272 272 272 272 271 271 271 270 269 269 268 266 266 266 266 267 267 267 267 267 267 266 266 266 267 266 267 267 264 261 259 258 257
270 263 259 268 274 266 260 268 274 276 282 279 277 280 284 291 296 296 298 305 310 321 324 325 328 323 318 313 308 305 305 307 306 303 299 296 296 296 295 292 287 284 285 286 285 283 279 274 268 265 263 262 262 261 262 264 266 269 270 272 273 273 273 272 271 271 270 269 267 266 266 266 264 262 262 262 263 264 265 266 266 267 267 267 266 265 264 264 265 265 265 266 267 265 263 260 259
260 266 276 281 276 265 258 265 283 273 256 271 273 278 287 292 293 293 300 304 305 310 312 310 310 311 310 308 306 304 304 305 302 299 298 297 296 295 293 290 286 284 284 283 283 280 276 272 267 263 261 260 259 260 261 264 266 269 270 271 272 272 272 271 269 268 265 263 261 261 261 261 260 260 260 261 262 262 264 265 266 267 268 270 270 269 268 267 265 265 265 266 266 267 266 265 262
266 272 278 275 268 265 255 239 277 275 264 276 270 273 281 281 281 291 297 297 298 300 301 303 305 305 305 307 308 308 305 301 296 295 298 299 297 296 295 294 291 290 288 283 279 276 272 268 264 261 260 258 257 257 259 261 264 266 268 269 269 268 267 265 264 262 259 258 258 259 259 259 259 260 260 261 261 261 262 263 265 267 269 271 271 271 271 271 271 270 269 268 268 269 269 269 267
277 277 275 269 266 268 262 254 264 272 274 283 275 271 277 281 286 292 293 293 296 298 299 302 304 304 304 307 310 309 304 297 294 299 302 303 303 301 299 299 297 297 295 289 280 274 270 266 261 258 258 257 256 256 256 259 261 262 263 263 262 261 260 258 257 257 257 258 259 259 260 260 261 263 264 265 265 265 265 265 265 266 267 269 270 271 271 271 272 272 272 272 270 270 270 269 267
281 276 272 270 269 271 271 267 266 264 261 279 279 260 274 284 289 289 290 294 296 297 299 302 303 303 304 306 308 307 304 298 298 301 302 303 304 303 300 299 298 297 297 294 285 275 268 263 258 256 257 257 257 258 258 258 258 257 258 258 257 255 254 253 253 254 256 258 259 261 262 264 265 267 269 270 271 271 272 272 272 270 269 269 269 269 269 270 270 270 271 272 271 270 268 266 264
281 275 272 273 274 274 274 273 269 265 255 264 275 270 276 283 288 288 291 296 297 298 301 302 302 303 303 304 305 304 302 300 299 299 300 301 303 303 300 296 293 292 291 293 288 278 268 262 258 256 256 255 256 257 257 256 253 252 251 252 252 250 249 250 251 253 255 256 258 260 262 264 266 268 270 271 272 274 274 274 275 275 274 274 273 272 270 270 270 270 270 270 271 271 269 266 262